TimeMDT,TemperatureF,Dew PointF,Humidity,Sea Level PressureIn,VisibilityMPH,Wind Direction,Wind SpeedMPH,Gust SpeedMPH,PrecipitationIn,Events,Conditions,WindDirDegrees,DateUTC
12:53 AM,75.9,50.0,40,29.94,10.0,ESE,3.5,-,N/A,,Clear,110,2013-07-15 06:53:00
1:53 AM,73.9,48.9,41,29.94,10.0,SSE,3.5,-,N/A,,Clear,160,2013-07-15 07:53:00
2:53 AM,73.0,48.9,42,29.92,10.0,Calm,Calm,-,N/A,,Clear,0,2013-07-15 08:53:00
3:53 AM,70.0,48.0,46,29.94,10.0,ESE,3.5,-,N/A,,Clear,120,2013-07-15 09:53:00
4:53 AM,69.1,48.9,49,29.93,10.0,Calm,Calm,-,N/A,,Clear,0,2013-07-15 10:53:00
5:53 AM,69.1,48.0,47,29.92,10.0,Calm,Calm,-,N/A,,Partly Cloudy,0,2013-07-15 11:53:00
6:53 AM,69.1,50.0,51,29.92,10.0,Calm,Calm,-,N/A,,Clear,0,2013-07-15 12:53:00
7:53 AM,73.9,53.1,48,29.91,10.0,Calm,Calm,-,N/A,,Partly Cloudy,0,2013-07-15 13:53:00
8:16 AM,75.2,53.6,47,30.05,10.0,Calm,Calm,-,N/A,Thunderstorm,Partly Cloudy,0,2013-07-15 14:16:00
8:41 AM,77.0,55.4,47,30.05,10.0,SE,3.5,-,N/A,,Clear,130,2013-07-15 14:41:00
8:53 AM,78.1,55.0,45,29.91,10.0,Variable,3.5,-,N/A,,Clear,0,2013-07-15 14:53:00
9:53 AM,82.0,54.0,38,29.90,10.0,SSE,8.1,-,N/A,,Clear,150,2013-07-15 15:53:00
10:53 AM,84.0,55.0,37,29.89,10.0,SSE,5.8,-,N/A,,Clear,150,2013-07-15 16:53:00
11:53 AM,88.0,51.1,28,29.87,10.0,SSE,4.6,-,N/A,,Clear,150,2013-07-15 17:53:00
12:53 PM,90.0,44.1,20,29.85,10.0,Calm,Calm,-,N/A,,Clear,0,2013-07-15 18:53:00
1:53 PM,96.1,30.0,10,29.81,10.0,Variable,6.9,-,N/A,,Clear,0,2013-07-15 19:53:00
2:53 PM,93.9,27.0,9,29.79,10.0,South,4.6,-,N/A,,Clear,190,2013-07-15 20:53:00
3:53 PM,97.0,27.0,8,29.77,10.0,East,6.9,-,N/A,,Clear,100,2013-07-15 21:53:00
4:53 PM,98.1,26.1,8,29.75,10.0,NE,6.9,-,N/A,,Clear,40,2013-07-15 22:53:00
5:53 PM,96.1,26.1,8,29.73,10.0,East,3.5,-,N/A,,Clear,100,2013-07-15 23:53:00
6:53 PM,96.1,26.1,8,29.73,10.0,ESE,3.5,-,N/A,,Clear,120,2013-07-16 00:53:00
7:53 PM,95.0,28.0,9,29.73,10.0,North,4.6,-,N/A,,Clear,360,2013-07-16 01:53:00
8:53 PM,90.0,28.9,11,29.73,10.0,North,4.6,-,N/A,,Clear,360,2013-07-16 02:53:00
9:53 PM,84.0,45.0,25,29.76,10.0,East,3.5,-,N/A,,Clear,100,2013-07-16 03:53:00
10:53 PM,82.9,46.0,27,29.77,10.0,East,5.8,-,N/A,,Clear,100,2013-07-16 04:53:00
11:53 PM,80.1,46.0,30,29.78,10.0,SE,3.5,-,N/A,,Clear,130,2013-07-16 05:53:00